Time,TemperatureF,DewpointF,PressureIn,WindDirection,WindDirectionDegrees,WindSpeedMPH,WindSpeedGustMPH,Humidity,HourlyPrecipIn,Conditions,Clouds,dailyrainin,SoftwareType,DateUTC
2013-11-17 00:01:00,49.7,46.6,30.26,NW,305,0.0,0.0,89,0.00,,OVC013,0.00,VWS V14.01,2013-11-17 05:01:00,
2013-11-17 00:02:00,49.6,46.5,30.26,NW,306,0.0,0.0,89,0.00,,OVC013,0.00,VWS V14.01,2013-11-17 05:02:00,
2013-11-17 00:07:00,49.6,46.5,30.27,NW,306,0.0,0.0,89,0.00,,OVC013,0.00,VWS V14.01,2013-11-17 05:07:00,
2013-11-17 00:12:00,49.7,46.6,30.26,NW,305,0.0,0.0,89,0.00,,OVC013,0.00,VWS V14.01,2013-11-17 05:12:00,
2013-11-17 00:17:00,49.7,46.9,30.26,NW,306,0.0,0.0,90,0.00,,OVC013,0.00,VWS V14.01,2013-11-17 05:17:00,
2013-11-17 00:22:00,49.8,47.0,30.25,NW,306,0.0,2.0,90,0.00,,OVC013,0.00,VWS V14.01,2013-11-17 05:22:00,
2013-11-17 00:27:00,49.9,47.1,30.24,NW,306,0.0,2.0,90,0.00,,OVC013,0.00,VWS V14.01,2013-11-17 05:27:00,
2013-11-17 00:32:00,49.9,47.1,30.25,NW,306,0.0,1.0,90,0.00,,OVC013,0.00,VWS V14.01,2013-11-17 05:32:00,
2013-11-17 00:37:00,49.8,47.0,30.25,NW,306,0.0,1.0,90,0.00,,OVC013,0.00,VWS V14.01,2013-11-17 05:37:00,
2013-11-17 00:42:00,49.8,47.0,30.25,NW,306,0.0,1.0,90,0.00,,OVC013,0.00,VWS V14.01,2013-11-17 05:42:00,
2013-11-17 00:47:00,49.8,47.0,30.25,NW,306,0.0,1.0,90,0.00,,OVC013,0.00,VWS V14.01,2013-11-17 05:47:00,
2013-11-17 00:52:00,49.7,46.9,30.24,NW,306,0.0,1.0,90,0.00,,OVC013,0.00,VWS V14.01,2013-11-17 05:52:00,
2013-11-17 00:57:00,49.7,46.9,30.25,NW,306,0.0,1.0,90,0.00,,OVC013,0.00,VWS V14.01,2013-11-17 05:57:00,
2013-11-17 01:02:00,49.7,46.9,30.25,NW,306,0.0,1.0,90,0.00,,OVC011,0.00,VWS V14.01,2013-11-17 06:02:00,
2013-11-17 01:07:00,49.7,46.9,30.25,NW,306,0.0,1.0,90,0.00,,OVC011,0.00,VWS V14.01,2013-11-17 06:07:00,
2013-11-17 01:12:00,49.7,46.9,30.24,NW,306,0.0,1.0,90,0.00,,OVC011,0.00,VWS V14.01,2013-11-17 06:12:00,
2013-11-17 01:17:00,49.6,46.8,30.25,NW,306,0.0,1.0,90,0.00,,OVC011,0.00,VWS V14.01,2013-11-17 06:17:00,
2013-11-17 01:22:00,49.6,46.8,30.25,NW,306,0.0,1.0,90,0.00,,OVC011,0.00,VWS V14.01,2013-11-17 06:22:00,
2013-11-17 01:27:00,49.6,46.8,30.25,NW,306,0.0,1.0,90,0.00,,OVC011,0.00,VWS V14.01,2013-11-17 06:27:00,
2013-11-17 01:32:00,49.6,46.8,30.24,NW,306,0.0,0.0,90,0.00,,OVC011,0.00,VWS V14.01,2013-11-17 06:32:00,
2013-11-17 01:37:00,49.5,46.7,30.24,NW,306,0.0,0.0,90,0.00,,OVC011,0.00,VWS V14.01,2013-11-17 06:37:00,
2013-11-17 01:42:00,49.5,46.7,30.24,NW,306,0.0,0.0,90,0.00,,OVC011,0.00,VWS V14.01,2013-11-17 06:42:00,
2013-11-17 01:47:00,49.5,47.0,30.24,NW,306,0.0,1.0,91,0.00,,OVC011,0.00,VWS V14.01,2013-11-17 06:47:00,
2013-11-17 01:52:00,49.5,46.7,30.25,NW,306,0.0,1.0,90,0.00,,OVC011,0.00,VWS V14.01,2013-11-17 06:52:00,
2013-11-17 01:57:00,49.5,46.7,30.25,NW,306,0.0,1.0,90,0.00,,OVC011,0.00,VWS V14.01,2013-11-17 06:57:00,
2013-11-17 02:02:00,49.5,47.0,30.25,NW,306,0.0,0.0,91,0.00,,,0.00,VWS V14.01,2013-11-17 07:02:00,
2013-11-17 02:07:00,49.5,46.7,30.25,NW,306,0.0,0.0,90,0.00,,,0.00,VWS V14.01,2013-11-17 07:07:00,
2013-11-17 02:12:00,49.5,47.0,30.25,NW,306,2.0,2.0,91,0.00,,,0.00,VWS V14.01,2013-11-17 07:12:00,
2013-11-17 02:17:00,49.5,47.0,30.24,NW,306,0.0,2.0,91,0.00,,,0.00,VWS V14.01,2013-11-17 07:17:00,
2013-11-17 02:22:00,49.6,47.1,30.24,NW,306,0.0,2.0,91,0.00,,,0.00,VWS V14.01,2013-11-17 07:22:00,
2013-11-17 02:28:00,49.8,47.6,30.24,NE,41,0.0,4.0,92,0.00,,,0.00,VWS V14.01,2013-11-17 07:28:00,
2013-11-17 02:33:00,50.0,47.8,30.24,NE,40,0.0,0.0,92,0.00,,,0.00,VWS V14.01,2013-11-17 07:33:00,
2013-11-17 02:38:00,50.1,47.9,30.23,NE,40,0.0,0.0,92,0.00,,,0.00,VWS V14.01,2013-11-17 07:38:00,
2013-11-17 02:43:00,50.3,48.4,30.23,NE,51,2.0,3.0,93,0.00,,,0.00,VWS V14.01,2013-11-17 07:43:00,
2013-11-17 02:48:00,50.5,48.6,30.23,NE,41,0.0,3.0,93,0.00,,,0.00,VWS V14.01,2013-11-17 07:48:00,
2013-11-17 02:53:00,50.7,48.8,30.23,NE,41,0.0,3.0,93,0.00,,,0.00,VWS V14.01,2013-11-17 07:53:00,
2013-11-17 02:58:00,50.8,48.8,30.23,NE,41,0.0,3.0,93,0.00,,,0.00,VWS V14.01,2013-11-17 07:58:00,
2013-11-17 03:03:00,50.9,49.0,30.23,NE,41,0.0,1.0,93,0.00,,,0.00,VWS V14.01,2013-11-17 08:03:00,
2013-11-17 03:08:00,51.1,49.2,30.23,NE,41,0.0,1.0,93,0.00,,,0.00,VWS V14.01,2013-11-17 08:08:00,
2013-11-17 03:13:00,51.3,49.3,30.23,NNE,25,0.0,4.0,93,0.00,,,0.00,VWS V14.01,2013-11-17 08:13:00,
2013-11-17 03:18:00,51.3,49.3,30.23,NNE,25,0.0,4.0,93,0.00,,,0.00,VWS V14.01,2013-11-17 08:18:00,
2013-11-17 03:23:00,51.4,49.5,30.23,South,176,0.0,4.0,93,0.00,,,0.00,VWS V14.01,2013-11-17 08:23:00,
2013-11-17 03:28:00,51.4,49.5,30.23,South,176,0.0,4.0,93,0.00,,,0.00,VWS V14.01,2013-11-17 08:28:00,
2013-11-17 03:33:00,51.4,49.5,30.22,South,176,0.0,0.0,93,0.00,,,0.00,VWS V14.01,2013-11-17 08:33:00,
2013-11-17 03:38:00,51.4,49.5,30.22,South,176,0.0,0.0,93,0.00,,,0.00,VWS V14.01,2013-11-17 08:38:00,
2013-11-17 03:43:00,51.5,49.5,30.21,South,176,1.0,1.0,93,0.00,,,0.00,VWS V14.01,2013-11-17 08:43:00,
2013-11-17 03:48:00,51.5,49.5,30.21,South,176,2.0,3.0,93,0.00,,,0.00,VWS V14.01,2013-11-17 08:48:00,
2013-11-17 03:53:00,51.5,49.5,30.21,South,176,1.0,3.0,93,0.00,,,0.00,VWS V14.01,2013-11-17 08:53:00,
2013-11-17 03:58:00,51.6,49.7,30.21,South,176,0.0,3.0,93,0.00,,,0.00,VWS V14.01,2013-11-17 08:58:00,
2013-11-17 04:03:00,51.7,49.8,30.21,South,176,0.0,2.0,93,0.00,,,0.00,VWS V14.01,2013-11-17 09:03:00,
2013-11-17 04:08:00,51.7,49.8,30.21,South,176,0.0,2.0,93,0.00,,,0.00,VWS V14.01,2013-11-17 09:08:00,
2013-11-17 04:13:00,51.8,49.8,30.21,South,176,1.0,4.0,93,0.00,,,0.00,VWS V14.01,2013-11-17 09:13:00,
2013-11-17 04:18:00,51.8,49.8,30.20,South,176,0.0,4.0,93,0.00,,,0.00,VWS V14.01,2013-11-17 09:18:00,
2013-11-17 04:23:00,51.9,49.9,30.20,South,176,0.0,4.0,93,0.00,,,0.00,VWS V14.01,2013-11-17 09:23:00,
2013-11-17 04:28:00,52.1,50.1,30.20,West,275,3.0,5.0,93,0.00,,,0.00,VWS V14.01,2013-11-17 09:28:00,
2013-11-17 04:33:00,52.2,50.2,30.20,WNW,287,3.0,4.0,93,0.00,,,0.00,VWS V14.01,2013-11-17 09:33:00,
2013-11-17 04:38:00,52.4,50.4,30.20,WNW,290,1.0,4.0,93,0.00,,,0.00,VWS V14.01,2013-11-17 09:38:00,
2013-11-17 04:43:00,52.5,50.5,30.20,WNW,303,0.0,4.0,93,0.00,,,0.00,VWS V14.01,2013-11-17 09:43:00,
2013-11-17 04:48:00,52.5,50.5,30.20,NE,42,0.0,5.0,93,0.00,,,0.00,VWS V14.01,2013-11-17 09:48:00,
2013-11-17 04:53:00,52.6,50.6,30.20,WNW,296,3.0,5.0,93,0.00,,,0.00,VWS V14.01,2013-11-17 09:53:00,
2013-11-17 04:58:00,52.7,50.7,30.20,WNW,295,0.0,5.0,93,0.00,,,0.00,VWS V14.01,2013-11-17 09:58:00,
2013-11-17 05:03:00,52.8,50.5,30.19,NNW,344,0.0,2.0,92,0.00,,,0.00,VWS V14.01,2013-11-17 10:03:00,
2013-11-17 05:08:00,52.8,50.5,30.19,NNW,343,0.0,2.0,92,0.00,,,0.00,VWS V14.01,2013-11-17 10:08:00,
2013-11-17 05:13:00,52.9,50.6,30.19,WNW,294,1.0,3.0,92,0.00,,,0.00,VWS V14.01,2013-11-17 10:13:00,
2013-11-17 05:18:00,53.0,50.7,30.19,West,272,2.0,5.0,92,0.00,,,0.00,VWS V14.01,2013-11-17 10:18:00,
2013-11-17 05:23:00,53.0,50.7,30.19,SSW,202,6.0,6.0,92,0.00,,,0.00,VWS V14.01,2013-11-17 10:23:00,
2013-11-17 05:28:00,53.1,50.8,30.19,SW,222,1.0,6.0,92,0.00,,,0.00,VWS V14.01,2013-11-17 10:28:00,
2013-11-17 05:33:00,53.1,50.8,30.18,NW,305,0.0,5.0,92,0.00,,,0.00,VWS V14.01,2013-11-17 10:33:00,
2013-11-17 05:38:00,53.2,50.9,30.19,WNW,287,2.0,5.0,92,0.00,,,0.00,VWS V14.01,2013-11-17 10:38:00,
2013-11-17 05:43:00,53.2,50.7,30.19,SSW,195,1.0,8.0,91,0.00,,,0.00,VWS V14.01,2013-11-17 10:43:00,
2013-11-17 05:48:00,53.3,50.7,30.18,South,175,1.0,8.0,91,0.00,,,0.00,VWS V14.01,2013-11-17 10:48:00,
2013-11-17 05:53:00,53.3,50.7,30.18,SSW,196,0.0,8.0,91,0.00,,,0.00,VWS V14.01,2013-11-17 10:53:00,
2013-11-17 05:58:00,53.3,50.7,30.17,SSE,150,2.0,8.0,91,0.00,,,0.00,VWS V14.01,2013-11-17 10:58:00,
2013-11-17 06:03:00,53.3,50.7,30.17,South,184,2.0,12.0,91,0.00,,,0.00,VWS V14.01,2013-11-17 11:03:00,
2013-11-17 06:08:00,53.3,50.7,30.17,East,79,1.0,12.0,91,0.00,,,0.00,VWS V14.01,2013-11-17 11:08:00,
2013-11-17 06:13:00,53.4,50.8,30.17,NE,44,3.0,12.0,91,0.00,,,0.00,VWS V14.01,2013-11-17 11:13:00,
2013-11-17 06:18:00,53.4,50.8,30.18,NE,45,1.0,12.0,91,0.00,,,0.00,VWS V14.01,2013-11-17 11:18:00,
2013-11-17 06:23:00,53.4,50.8,30.18,NE,45,0.0,12.0,91,0.00,,,0.00,VWS V14.01,2013-11-17 11:23:00,
2013-11-17 06:28:00,53.3,50.7,30.18,WSW,247,5.0,12.0,91,0.00,,,0.00,VWS V14.01,2013-11-17 11:28:00,
2013-11-17 06:33:00,53.3,50.7,30.18,WSW,248,2.0,5.0,91,0.00,,,0.00,VWS V14.01,2013-11-17 11:33:00,
2013-11-17 06:38:00,53.3,50.7,30.18,West,270,3.0,5.0,91,0.00,,,0.00,VWS V14.01,2013-11-17 11:38:00,
2013-11-17 06:43:00,53.3,50.7,30.17,SSW,197,0.0,5.0,91,0.00,,,0.00,VWS V14.01,2013-11-17 11:43:00,
2013-11-17 06:48:00,53.3,50.7,30.17,SSW,197,0.0,5.0,91,0.00,,,0.00,VWS V14.01,2013-11-17 11:48:00,
2013-11-17 06:53:00,53.2,50.7,30.17,West,280,0.0,5.0,91,0.00,,,0.00,VWS V14.01,2013-11-17 11:53:00,
2013-11-17 06:58:00,53.2,50.7,30.18,SSE,159,3.0,6.0,91,0.00,,,0.00,VWS V14.01,2013-11-17 11:58:00,
2013-11-17 07:03:00,53.3,51.0,30.17,South,185,1.0,9.0,92,0.00,,OVC009,0.00,VWS V14.01,2013-11-17 12:03:00,
2013-11-17 07:08:00,53.3,51.0,30.18,South,185,3.0,9.0,92,0.00,,OVC009,0.00,VWS V14.01,2013-11-17 12:08:00,
2013-11-17 07:13:00,53.3,51.0,30.17,NNE,29,1.0,9.0,92,0.00,,OVC009,0.00,VWS V14.01,2013-11-17 12:13:00,
2013-11-17 07:18:00,53.4,51.1,30.18,SW,228,1.0,9.0,92,0.00,,OVC009,0.00,VWS V14.01,2013-11-17 12:18:00,
2013-11-17 07:23:00,62.4,60.0,30.47,SSE,157,0.0,9.0,92,0.00,,OVC009,0.00,VWS V14.01,2013-11-17 12:23:00,
2013-11-17 07:28:00,53.5,51.5,30.18,SSW,208,5.0,9.0,93,0.00,,OVC009,0.00,VWS V14.01,2013-11-17 12:28:00,
2013-11-17 07:33:00,53.5,51.5,30.18,North,357,3.0,8.0,93,0.00,,OVC009,0.00,VWS V14.01,2013-11-17 12:33:00,
2013-11-17 07:38:00,53.6,51.6,30.18,South,181,0.0,8.0,93,0.00,,OVC009,0.00,VWS V14.01,2013-11-17 12:38:00,
2013-11-17 07:43:00,53.6,51.6,30.18,South,181,0.0,8.0,93,0.00,,OVC009,0.00,VWS V14.01,2013-11-17 12:43:00,
2013-11-17 07:48:00,53.7,51.7,30.18,South,181,0.0,8.0,93,0.00,,OVC009,0.00,VWS V14.01,2013-11-17 12:48:00,
2013-11-17 07:53:00,53.8,51.8,30.18,South,181,1.0,8.0,93,0.00,,OVC009,0.00,VWS V14.01,2013-11-17 12:53:00,
2013-11-17 07:58:00,53.8,51.8,30.18,South,181,0.0,8.0,93,0.00,,OVC009,0.00,VWS V14.01,2013-11-17 12:58:00,
2013-11-17 08:03:00,53.9,51.9,30.18,North,349,2.0,5.0,93,0.00,,OVC010,0.00,VWS V14.01,2013-11-17 13:03:00,
2013-11-17 08:08:00,54.0,52.0,30.18,NW,318,2.0,5.0,93,0.00,,OVC010,0.00,VWS V14.01,2013-11-17 13:08:00,
2013-11-17 08:13:00,54.1,52.1,30.18,NW,318,0.0,5.0,93,0.00,,OVC010,0.00,VWS V14.01,2013-11-17 13:13:00,
2013-11-17 08:18:00,54.1,52.1,30.18,SW,233,4.0,6.0,93,0.00,,OVC010,0.00,VWS V14.01,2013-11-17 13:18:00,
2013-11-17 08:23:00,54.2,52.2,30.18,WNW,282,0.0,6.0,93,0.00,,OVC010,0.00,VWS V14.01,2013-11-17 13:23:00,
2013-11-17 08:28:00,54.2,51.9,30.18,WNW,291,0.0,6.0,92,0.00,,OVC010,0.00,VWS V14.01,2013-11-17 13:28:00,
2013-11-17 08:33:00,54.3,52.3,30.18,WNW,292,2.0,3.0,93,0.00,,OVC010,0.00,VWS V14.01,2013-11-17 13:33:00,
2013-11-17 08:38:00,54.4,52.1,30.18,SSW,199,3.0,8.0,92,0.00,,OVC010,0.00,VWS V14.01,2013-11-17 13:38:00,
2013-11-17 08:43:00,54.5,52.2,30.18,ENE,66,6.0,9.0,92,0.00,,OVC010,0.00,VWS V14.01,2013-11-17 13:43:00,
2013-11-17 08:48:00,54.6,52.3,30.18,South,184,6.0,9.0,92,0.00,,OVC010,0.00,VWS V14.01,2013-11-17 13:48:00,
2013-11-17 08:53:00,54.7,52.4,30.19,SE,145,4.0,9.0,92,0.00,,OVC010,0.00,VWS V14.01,2013-11-17 13:53:00,
2013-11-17 08:58:00,54.7,52.1,30.18,South,182,0.0,9.0,91,0.00,,OVC010,0.00,VWS V14.01,2013-11-17 13:58:00,
2013-11-17 09:03:00,54.8,52.2,30.18,SW,214,2.0,7.0,91,0.00,,OVC010,0.00,VWS V14.01,2013-11-17 14:03:00,
2013-11-17 09:08:00,54.8,52.2,30.19,SSW,203,0.0,7.0,91,0.00,,OVC010,0.00,VWS V14.01,2013-11-17 14:08:00,
2013-11-17 09:13:00,54.8,52.2,30.18,West,271,0.0,7.0,91,0.00,,OVC010,0.00,VWS V14.01,2013-11-17 14:13:00,
2013-11-17 09:18:00,54.9,52.3,30.18,NE,53,2.0,7.0,91,0.00,,OVC010,0.00,VWS V14.01,2013-11-17 14:18:00,
2013-11-17 09:23:00,54.9,52.3,30.18,SW,226,1.0,7.0,91,0.00,,OVC010,0.00,VWS V14.01,2013-11-17 14:23:00,
2013-11-17 09:28:00,55.0,52.4,30.17,South,185,2.0,7.0,91,0.00,,OVC010,0.00,VWS V14.01,2013-11-17 14:28:00,
2013-11-17 09:33:00,55.1,52.5,30.17,South,186,6.0,9.0,91,0.00,,,0.00,VWS V14.01,2013-11-17 14:33:00,
2013-11-17 09:38:00,55.2,52.6,30.17,South,184,0.0,9.0,91,0.00,,,0.00,VWS V14.01,2013-11-17 14:38:00,
2013-11-17 09:43:00,55.2,52.3,30.17,ESE,112,2.0,9.0,90,0.00,,,0.00,VWS V14.01,2013-11-17 14:43:00,
2013-11-17 09:48:00,55.3,52.4,30.18,West,266,0.0,9.0,90,0.00,,,0.00,VWS V14.01,2013-11-17 14:48:00,
2013-11-17 09:53:00,55.4,52.5,30.18,WSW,237,2.0,9.0,90,0.00,,,0.00,VWS V14.01,2013-11-17 14:53:00,
2013-11-17 09:58:00,55.4,52.5,30.18,WNW,294,0.0,9.0,90,0.00,,,0.00,VWS V14.01,2013-11-17 14:58:00,
2013-11-17 10:03:00,55.5,52.6,30.17,WSW,257,2.0,7.0,90,0.00,,,0.00,VWS V14.01,2013-11-17 15:03:00,
2013-11-17 10:08:00,55.6,52.7,30.17,SSW,209,0.0,7.0,90,0.00,,,0.00,VWS V14.01,2013-11-17 15:08:00,
2013-11-17 10:14:00,55.7,52.8,30.17,South,182,2.0,7.0,90,0.00,,,0.00,VWS V14.01,2013-11-17 15:14:00,
2013-11-17 10:19:00,55.8,52.9,30.17,SSW,195,1.0,7.0,90,0.00,,,0.00,VWS V14.01,2013-11-17 15:19:00,
2013-11-17 10:24:00,55.8,52.9,30.17,South,174,7.0,7.0,90,0.00,,,0.00,VWS V14.01,2013-11-17 15:24:00,
2013-11-17 10:29:00,55.9,53.0,30.17,SSW,210,3.0,9.0,90,0.00,,,0.00,VWS V14.01,2013-11-17 15:29:00,
2013-11-17 10:34:00,55.9,52.7,30.16,SSW,196,9.0,9.0,89,0.00,,,0.00,VWS V14.01,2013-11-17 15:34:00,
2013-11-17 10:39:00,55.9,52.7,30.16,South,170,5.0,10.0,89,0.00,,,0.00,VWS V14.01,2013-11-17 15:39:00,
2013-11-17 10:44:00,55.8,52.9,30.16,SSE,163,6.0,11.0,90,0.00,,,0.00,VWS V14.01,2013-11-17 15:44:00,
2013-11-17 10:49:00,55.8,52.9,30.16,SW,225,12.0,12.0,90,0.00,,,0.00,VWS V14.01,2013-11-17 15:49:00,
2013-11-17 10:54:00,55.7,52.8,30.15,SW,233,2.0,13.0,90,0.00,,,0.00,VWS V14.01,2013-11-17 15:54:00,
2013-11-17 10:59:00,55.8,52.9,30.15,South,181,0.0,13.0,90,0.00,,,0.00,VWS V14.01,2013-11-17 15:59:00,
2013-11-17 11:04:00,55.9,53.0,30.15,SSW,196,3.0,7.0,90,0.00,,OVC012,0.00,VWS V14.01,2013-11-17 16:04:00,
2013-11-17 11:09:00,55.9,53.0,30.15,South,174,4.0,7.0,90,0.00,,OVC012,0.00,VWS V14.01,2013-11-17 16:09:00,
2013-11-17 11:14:00,56.1,53.2,30.15,SSW,204,5.0,10.0,90,0.00,,OVC012,0.00,VWS V14.01,2013-11-17 16:14:00,
2013-11-17 11:19:00,56.2,53.3,30.14,SSW,210,7.0,10.0,90,0.00,,OVC012,0.00,VWS V14.01,2013-11-17 16:19:00,
2013-11-17 11:24:00,56.4,53.5,30.14,SSW,203,0.0,11.0,90,0.00,,OVC012,0.00,VWS V14.01,2013-11-17 16:24:00,
2013-11-17 11:29:00,56.6,53.4,30.13,SW,220,0.0,11.0,89,0.00,,OVC012,0.00,VWS V14.01,2013-11-17 16:29:00,
2013-11-17 11:34:00,56.9,53.7,30.13,SSW,201,4.0,9.0,89,0.00,,OVC012,0.00,VWS V14.01,2013-11-17 16:34:00,
2013-11-17 11:39:00,57.1,53.9,30.13,SSW,211,3.0,11.0,89,0.00,,OVC012,0.00,VWS V14.01,2013-11-17 16:39:00,
2013-11-17 11:44:00,57.1,53.6,30.12,ESE,109,8.0,11.0,88,0.00,,OVC012,0.00,VWS V14.01,2013-11-17 16:44:00,
2013-11-17 11:49:00,57.1,53.6,30.13,SW,233,2.0,11.0,88,0.00,,OVC012,0.00,VWS V14.01,2013-11-17 16:49:00,
2013-11-17 11:54:00,57.1,53.6,30.12,SSW,195,1.0,11.0,88,0.00,,OVC012,0.00,VWS V14.01,2013-11-17 16:54:00,
2013-11-17 11:59:00,57.0,53.5,30.11,SSW,195,0.0,11.0,88,0.00,,OVC012,0.00,VWS V14.01,2013-11-17 16:59:00,
2013-11-17 12:04:00,57.0,53.5,30.11,SSW,211,4.0,9.0,88,0.00,,OVC012,0.00,VWS V14.01,2013-11-17 17:04:00,
2013-11-17 12:09:00,57.1,53.6,30.11,SSW,196,5.0,9.0,88,0.00,,OVC012,0.00,VWS V14.01,2013-11-17 17:09:00,
2013-11-17 12:14:00,57.1,53.9,30.10,SW,218,3.0,9.0,89,0.00,,OVC012,0.00,VWS V14.01,2013-11-17 17:14:00,
2013-11-17 12:19:00,57.0,53.8,30.10,South,178,6.0,11.0,89,0.00,,OVC012,0.00,VWS V14.01,2013-11-17 17:19:00,
2013-11-17 12:24:00,57.0,53.8,30.10,South,175,3.0,11.0,89,0.00,,OVC012,0.00,VWS V14.01,2013-11-17 17:24:00,
2013-11-17 12:29:00,57.0,53.8,30.10,South,175,2.0,11.0,89,0.00,,OVC012,0.00,VWS V14.01,2013-11-17 17:29:00,
2013-11-17 12:34:00,57.0,53.8,30.09,SSE,165,0.0,7.0,89,0.00,,OVC012,0.00,VWS V14.01,2013-11-17 17:34:00,
2013-11-17 12:39:00,56.9,53.7,30.10,WSW,256,3.0,7.0,89,0.00,,OVC012,0.00,VWS V14.01,2013-11-17 17:39:00,
2013-11-17 12:44:00,56.9,53.7,30.09,SW,218,5.0,7.0,89,0.00,,OVC012,0.00,VWS V14.01,2013-11-17 17:44:00,
2013-11-17 12:49:00,56.8,53.6,30.09,South,175,0.0,10.0,89,0.00,,OVC012,0.00,VWS V14.01,2013-11-17 17:49:00,
2013-11-17 12:54:00,56.8,53.6,30.08,SW,214,0.0,10.0,89,0.00,,OVC012,0.00,VWS V14.01,2013-11-17 17:54:00,
2013-11-17 12:59:00,56.8,53.6,30.08,West,279,5.0,10.0,89,0.00,,OVC012,0.00,VWS V14.01,2013-11-17 17:59:00,
2013-11-17 13:04:00,56.7,53.5,30.08,South,182,5.0,9.0,89,0.00,,OVC014,0.00,VWS V14.01,2013-11-17 18:04:00,
2013-11-17 13:09:00,56.7,53.5,30.08,SSE,151,0.0,9.0,89,0.00,,OVC014,0.00,VWS V14.01,2013-11-17 18:09:00,
2013-11-17 13:14:00,56.8,53.6,30.08,South,180,4.0,9.0,89,0.00,,OVC014,0.00,VWS V14.01,2013-11-17 18:14:00,
2013-11-17 13:19:00,56.8,53.6,30.08,SSE,168,0.0,9.0,89,0.00,,OVC014,0.00,VWS V14.01,2013-11-17 18:19:00,
2013-11-17 13:24:00,56.9,53.7,30.08,South,170,0.0,9.0,89,0.00,,OVC014,0.00,VWS V14.01,2013-11-17 18:24:00,
2013-11-17 13:29:00,57.0,53.8,30.08,SW,232,2.0,9.0,89,0.00,,OVC014,0.00,VWS V14.01,2013-11-17 18:29:00,
2013-11-17 13:34:00,57.1,53.9,30.08,West,271,2.0,4.0,89,0.00,,OVC014,0.00,VWS V14.01,2013-11-17 18:34:00,
2013-11-17 13:39:00,57.2,54.0,30.07,South,183,6.0,11.0,89,0.00,,OVC014,0.00,VWS V14.01,2013-11-17 18:39:00,
2013-11-17 13:44:00,57.3,54.1,30.07,WSW,245,6.0,11.0,89,0.00,,OVC014,0.00,VWS V14.01,2013-11-17 18:44:00,
2013-11-17 13:49:00,57.4,54.2,30.07,West,260,2.0,11.0,89,0.00,,OVC014,0.00,VWS V14.01,2013-11-17 18:49:00,
2013-11-17 13:54:00,57.5,54.3,30.07,WSW,237,1.0,11.0,89,0.00,,OVC014,0.00,VWS V14.01,2013-11-17 18:54:00,
2013-11-17 13:59:00,57.6,54.1,30.07,SSW,206,1.0,11.0,88,0.00,,OVC014,0.00,VWS V14.01,2013-11-17 18:59:00,
2013-11-17 14:04:00,57.6,54.4,30.06,West,275,0.0,4.0,89,0.00,,OVC014,0.00,VWS V14.01,2013-11-17 19:04:00,
2013-11-17 14:09:00,57.7,54.5,30.05,South,179,0.0,4.0,89,0.00,,OVC014,0.00,VWS V14.01,2013-11-17 19:09:00,
2013-11-17 14:14:00,57.7,54.2,30.05,SSW,198,1.0,5.0,88,0.00,,OVC014,0.00,VWS V14.01,2013-11-17 19:14:00,
2013-11-17 14:19:00,57.7,54.2,30.05,SW,218,0.0,9.0,88,0.00,,OVC014,0.00,VWS V14.01,2013-11-17 19:19:00,
2013-11-17 14:24:00,57.8,54.3,30.05,South,188,0.0,9.0,88,0.00,,OVC014,0.00,VWS V14.01,2013-11-17 19:24:00,
2013-11-17 14:29:00,57.8,54.3,30.05,South,188,0.0,9.0,88,0.00,,OVC014,0.00,VWS V14.01,2013-11-17 19:29:00,
2013-11-17 14:34:00,57.8,54.3,30.05,South,188,0.0,0.0,88,0.00,,OVC013,0.00,VWS V14.01,2013-11-17 19:34:00,
2013-11-17 14:39:00,57.8,54.3,30.05,South,188,1.0,1.0,88,0.00,,OVC013,0.00,VWS V14.01,2013-11-17 19:39:00,
2013-11-17 14:44:00,57.8,54.3,30.05,South,188,1.0,2.0,88,0.00,,OVC013,0.00,VWS V14.01,2013-11-17 19:44:00,
2013-11-17 14:49:00,57.8,54.3,30.05,South,188,0.0,3.0,88,0.00,,OVC013,0.00,VWS V14.01,2013-11-17 19:49:00,
2013-11-17 14:54:00,57.9,54.7,30.05,SW,227,4.0,6.0,89,0.00,,OVC013,0.00,VWS V14.01,2013-11-17 19:54:00,
2013-11-17 14:59:00,57.9,54.4,30.05,SW,220,0.0,6.0,88,0.00,,OVC013,0.00,VWS V14.01,2013-11-17 19:59:00,
2013-11-17 15:04:00,57.9,54.4,30.04,WSW,239,3.0,6.0,88,0.00,,OVC014,0.00,VWS V14.01,2013-11-17 20:04:00,
2013-11-17 15:09:00,58.0,54.8,30.04,West,265,3.0,6.0,89,0.00,,OVC014,0.00,VWS V14.01,2013-11-17 20:09:00,
2013-11-17 15:14:00,58.0,54.8,30.03,SW,221,0.0,6.0,89,0.00,,OVC014,0.00,VWS V14.01,2013-11-17 20:14:00,
2013-11-17 15:19:00,57.9,54.7,30.03,SSW,208,0.0,6.0,89,0.00,,OVC014,0.00,VWS V14.01,2013-11-17 20:19:00,
2013-11-17 15:24:00,57.9,54.7,30.03,WSW,256,4.0,7.0,89,0.00,,OVC014,0.00,VWS V14.01,2013-11-17 20:24:00,
2013-11-17 15:29:00,57.9,54.7,30.03,SSW,195,0.0,7.0,89,0.00,,OVC014,0.00,VWS V14.01,2013-11-17 20:29:00,
2013-11-17 15:34:00,57.9,54.7,30.02,West,270,1.0,6.0,89,0.00,,OVC014,0.00,VWS V14.01,2013-11-17 20:34:00,
2013-11-17 15:39:00,57.9,54.7,30.01,SW,226,0.0,6.0,89,0.00,,OVC014,0.00,VWS V14.01,2013-11-17 20:39:00,
2013-11-17 15:44:00,57.8,54.6,30.01,WNW,292,3.0,6.0,89,0.00,,OVC014,0.00,VWS V14.01,2013-11-17 20:44:00,
2013-11-17 15:49:00,57.8,54.6,30.01,South,189,0.0,7.0,89,0.00,,OVC014,0.00,VWS V14.01,2013-11-17 20:49:00,
2013-11-17 15:54:00,57.8,54.6,30.01,South,189,0.0,7.0,89,0.00,,OVC014,0.00,VWS V14.01,2013-11-17 20:54:00,
2013-11-17 15:59:00,57.8,54.6,30.01,WSW,240,3.0,7.0,89,0.00,,OVC014,0.00,VWS V14.01,2013-11-17 20:59:00,
2013-11-17 16:04:00,57.7,54.5,30.00,SSW,203,10.0,13.0,89,0.00,,,0.00,VWS V14.01,2013-11-17 21:04:00,
2013-11-17 16:09:00,57.7,54.8,30.00,South,180,6.0,13.0,90,0.00,,,0.00,VWS V14.01,2013-11-17 21:09:00,
2013-11-17 16:14:00,57.7,54.8,30.00,SW,221,3.0,13.0,90,0.00,,,0.00,VWS V14.01,2013-11-17 21:14:00,
2013-11-17 16:19:00,57.6,54.7,29.99,SSW,196,6.0,13.0,90,0.00,,,0.00,VWS V14.01,2013-11-17 21:19:00,
2013-11-17 16:24:00,57.6,54.7,29.99,South,187,3.0,13.0,90,0.00,,,0.00,VWS V14.01,2013-11-17 21:24:00,
2013-11-17 16:29:00,57.5,54.6,29.98,South,172,3.0,13.0,90,0.00,,,0.00,VWS V14.01,2013-11-17 21:29:00,
2013-11-17 16:34:00,57.5,54.6,29.98,WSW,251,1.0,9.0,90,0.00,,,0.00,VWS V14.01,2013-11-17 21:34:00,
2013-11-17 16:39:00,57.5,54.6,29.98,South,189,2.0,9.0,90,0.00,,,0.00,VWS V14.01,2013-11-17 21:39:00,
2013-11-17 16:44:00,57.6,54.7,29.98,West,275,1.0,9.0,90,0.00,,,0.00,VWS V14.01,2013-11-17 21:44:00,
2013-11-17 16:49:00,57.5,54.6,29.98,South,189,4.0,9.0,90,0.00,,,0.00,VWS V14.01,2013-11-17 21:49:00,
2013-11-17 16:54:00,57.6,54.7,29.98,WSW,244,2.0,9.0,90,0.00,,,0.00,VWS V14.01,2013-11-17 21:54:00,
2013-11-17 16:59:00,57.6,54.7,29.97,SSW,193,4.0,9.0,90,0.00,,,0.00,VWS V14.01,2013-11-17 21:59:00,
2013-11-17 17:04:00,57.7,54.8,29.98,NNE,31,3.0,8.0,90,0.00,,OVC012,0.00,VWS V14.01,2013-11-17 22:04:00,
2013-11-17 17:09:00,57.8,54.9,29.97,NE,45,0.0,8.0,90,0.00,,OVC012,0.00,VWS V14.01,2013-11-17 22:09:00,
2013-11-17 17:14:00,57.9,55.0,29.98,SSW,198,0.0,8.0,90,0.00,,OVC012,0.00,VWS V14.01,2013-11-17 22:14:00,
2013-11-17 17:19:00,57.9,55.0,29.98,South,175,1.0,8.0,90,0.00,,OVC012,0.00,VWS V14.01,2013-11-17 22:19:00,
2013-11-17 17:25:00,57.9,55.0,29.97,South,175,0.0,8.0,90,0.00,,OVC012,0.00,VWS V14.01,2013-11-17 22:25:00,
2013-11-17 17:29:00,57.9,55.0,29.97,South,175,0.0,8.0,90,0.00,,OVC012,0.00,VWS V14.01,2013-11-17 22:29:00,
2013-11-17 17:35:00,58.0,55.1,29.97,SSE,168,2.0,12.0,90,0.00,,OVC012,0.00,VWS V14.01,2013-11-17 22:35:00,
2013-11-17 17:40:00,58.2,55.0,29.96,West,262,3.0,12.0,89,0.00,,OVC012,0.00,VWS V14.01,2013-11-17 22:40:00,
2013-11-17 17:45:00,58.3,55.1,29.95,SW,224,4.0,12.0,89,0.00,,OVC012,0.00,VWS V14.01,2013-11-17 22:45:00,
2013-11-17 17:50:00,58.4,55.2,29.96,SSW,205,1.0,12.0,89,0.00,,OVC012,0.00,VWS V14.01,2013-11-17 22:50:00,
2013-11-17 17:55:00,58.6,55.4,29.95,SSW,212,5.0,12.0,89,0.00,,OVC012,0.00,VWS V14.01,2013-11-17 22:55:00,
2013-11-17 18:00:00,58.6,55.4,29.94,South,169,4.0,12.0,89,0.00,,OVC012,0.00,VWS V14.01,2013-11-17 23:00:00,
2013-11-17 18:05:00,58.7,55.5,29.94,SW,221,6.0,10.0,89,0.00,,,0.00,VWS V14.01,2013-11-17 23:05:00,
2013-11-17 18:10:00,58.8,55.6,29.95,West,262,0.0,10.0,89,0.00,,,0.00,VWS V14.01,2013-11-17 23:10:00,
2013-11-17 18:15:00,58.9,55.7,29.95,WSW,248,3.0,10.0,89,0.00,,,0.00,VWS V14.01,2013-11-17 23:15:00,
2013-11-17 18:20:00,59.0,55.5,29.95,South,172,6.0,15.0,88,0.00,,,0.00,VWS V14.01,2013-11-17 23:20:00,
2013-11-17 18:25:00,59.1,55.5,29.95,SW,221,5.0,15.0,88,0.00,,,0.00,VWS V14.01,2013-11-17 23:25:00,
2013-11-17 18:30:00,59.2,55.7,29.94,SW,228,4.0,15.0,88,0.00,,,0.00,VWS V14.01,2013-11-17 23:30:00,
2013-11-17 18:35:00,59.3,55.4,29.94,South,183,3.0,9.0,87,0.00,,OVC015,0.00,VWS V14.01,2013-11-17 23:35:00,
2013-11-17 18:40:00,59.3,55.8,29.93,South,181,1.0,9.0,88,0.00,,OVC015,0.00,VWS V14.01,2013-11-17 23:40:00,
2013-11-17 18:45:00,59.4,55.5,29.94,SSW,201,4.0,13.0,87,0.00,,OVC015,0.00,VWS V14.01,2013-11-17 23:45:00,
2013-11-17 18:50:00,59.4,55.5,29.93,South,177,1.0,13.0,87,0.00,,OVC015,0.00,VWS V14.01,2013-11-17 23:50:00,
2013-11-17 18:55:00,59.4,55.5,29.92,SW,223,4.0,13.0,87,0.00,,OVC015,0.00,VWS V14.01,2013-11-17 23:55:00,
2013-11-17 19:00:00,59.4,55.5,29.92,SW,222,5.0,13.0,87,0.00,,OVC015,0.00,VWS V14.01,2013-11-18 00:00:00,
2013-11-17 19:05:00,59.5,55.6,29.91,West,262,4.0,8.0,87,0.00,,OVC017,0.00,VWS V14.01,2013-11-18 00:05:00,
2013-11-17 19:10:00,59.5,55.6,29.92,WSW,255,8.0,8.0,87,0.00,,OVC017,0.00,VWS V14.01,2013-11-18 00:10:00,
2013-11-17 19:15:00,59.5,55.6,29.91,ESE,109,1.0,8.0,87,0.00,,OVC017,0.00,VWS V14.01,2013-11-18 00:15:00,
2013-11-17 19:20:00,59.5,55.6,29.91,SW,217,3.0,8.0,87,0.00,,OVC017,0.00,VWS V14.01,2013-11-18 00:20:00,
2013-11-17 19:25:00,59.5,55.6,29.91,SSW,209,2.0,9.0,87,0.00,,OVC017,0.00,VWS V14.01,2013-11-18 00:25:00,
2013-11-17 19:30:00,59.6,55.7,29.90,South,182,4.0,4.0,87,0.00,,OVC017,0.00,VWS V14.01,2013-11-18 00:30:00,
2013-11-17 19:35:00,59.5,55.6,29.90,WSW,251,3.0,5.0,87,0.00,,OVC017,0.00,VWS V14.01,2013-11-18 00:35:00,
2013-11-17 19:40:00,59.6,55.7,29.89,SSW,204,2.0,9.0,87,0.00,,OVC017,0.00,VWS V14.01,2013-11-18 00:40:00,
2013-11-17 19:45:00,59.6,55.7,29.90,SSW,198,2.0,9.0,87,0.00,,OVC017,0.00,VWS V14.01,2013-11-18 00:45:00,
2013-11-17 19:50:00,59.7,55.8,29.90,South,190,5.0,9.0,87,0.00,,OVC017,0.00,VWS V14.01,2013-11-18 00:50:00,
2013-11-17 19:55:00,59.7,55.8,29.89,SW,230,0.0,9.0,87,0.00,,OVC017,0.00,VWS V14.01,2013-11-18 00:55:00,
2013-11-17 20:00:00,59.8,55.9,29.89,SSW,198,4.0,9.0,87,0.00,,OVC017,0.00,VWS V14.01,2013-11-18 01:00:00,
2013-11-17 20:05:00,59.8,55.9,29.89,SW,234,6.0,14.0,87,0.00,,OVC017,0.00,VWS V14.01,2013-11-18 01:05:00,
2013-11-17 20:10:00,59.9,56.0,29.88,WSW,241,2.0,14.0,87,0.00,,OVC017,0.00,VWS V14.01,2013-11-18 01:10:00,
2013-11-17 20:15:00,60.0,56.1,29.88,SW,225,6.0,14.0,87,0.00,,OVC017,0.00,VWS V14.01,2013-11-18 01:15:00,
2013-11-17 20:20:00,60.0,56.4,29.89,SSW,207,11.0,20.0,88,0.00,,OVC017,0.00,VWS V14.01,2013-11-18 01:20:00,
2013-11-17 20:25:00,60.1,56.5,29.88,SSW,199,6.0,20.0,88,0.00,,OVC017,0.00,VWS V14.01,2013-11-18 01:25:00,
2013-11-17 20:30:00,60.0,56.4,29.87,SW,236,4.0,7.0,88,0.00,,OVC017,0.00,VWS V14.01,2013-11-18 01:30:00,
2013-11-17 20:35:00,60.0,56.8,29.86,SSW,206,7.0,12.0,89,0.00,,OVC017,0.00,VWS V14.01,2013-11-18 01:35:00,
2013-11-17 20:40:00,59.9,56.7,29.87,SW,216,4.0,12.0,89,0.00,,OVC017,0.00,VWS V14.01,2013-11-18 01:40:00,
2013-11-17 20:45:00,59.8,56.9,29.86,SW,231,5.0,13.0,90,0.00,,OVC017,0.00,VWS V14.01,2013-11-18 01:45:00,
2013-11-17 20:50:00,59.7,56.5,29.85,SSW,198,7.0,13.0,89,0.00,,OVC017,0.00,VWS V14.01,2013-11-18 01:50:00,
2013-11-17 20:55:00,59.6,56.7,29.84,SW,221,3.0,14.0,90,0.00,,OVC017,0.00,VWS V14.01,2013-11-18 01:55:00,
2013-11-17 21:00:00,59.5,56.6,29.84,SW,219,6.0,7.0,90,0.00,,OVC017,0.00,VWS V14.01,2013-11-18 02:00:00,
2013-11-17 21:05:00,59.5,56.6,29.84,SSE,160,0.0,8.0,90,0.00,,OVC017,0.00,VWS V14.01,2013-11-18 02:05:00,
2013-11-17 21:10:00,59.4,56.5,29.83,WSW,251,3.0,11.0,90,0.00,,OVC017,0.00,VWS V14.01,2013-11-18 02:10:00,
2013-11-17 21:15:00,59.4,56.5,29.82,WSW,246,4.0,11.0,90,0.00,,OVC017,0.00,VWS V14.01,2013-11-18 02:15:00,
2013-11-17 21:20:00,59.5,56.6,29.82,WSW,257,0.0,12.0,90,0.00,,OVC017,0.00,VWS V14.01,2013-11-18 02:20:00,
2013-11-17 21:25:00,59.5,56.6,29.82,West,268,1.0,12.0,90,0.00,,OVC017,0.00,VWS V14.01,2013-11-18 02:25:00,
2013-11-17 21:30:00,59.5,56.6,29.82,SW,222,5.0,8.0,90,0.00,,OVC017,0.00,VWS V14.01,2013-11-18 02:30:00,
2013-11-17 21:35:00,59.6,56.7,29.82,SSW,205,6.0,23.0,90,0.00,,OVC017,0.00,VWS V14.01,2013-11-18 02:35:00,
2013-11-17 21:40:00,59.7,56.8,29.80,SW,221,9.0,23.0,90,0.00,,OVC017,0.00,VWS V14.01,2013-11-18 02:40:00,
2013-11-17 21:45:00,59.7,56.5,29.80,NNW,327,2.0,23.0,89,0.00,,OVC017,0.00,VWS V14.01,2013-11-18 02:45:00,
2013-11-17 21:50:00,59.7,56.5,29.80,SSW,194,0.0,23.0,89,0.00,,OVC017,0.00,VWS V14.01,2013-11-18 02:50:00,
2013-11-17 21:55:00,59.7,56.5,29.79,WSW,244,6.0,23.0,89,0.00,,OVC017,0.00,VWS V14.01,2013-11-18 02:55:00,
2013-11-17 22:00:00,59.8,56.6,29.79,WSW,249,3.0,7.0,89,0.00,,-RA,0.00,VWS V14.01,2013-11-18 03:00:00,
2013-11-17 22:05:00,59.9,56.7,29.78,WSW,242,5.0,23.0,89,0.00,,-RA,0.00,VWS V14.01,2013-11-18 03:05:00,
2013-11-17 22:10:00,60.1,56.8,29.77,SW,221,8.0,23.0,89,0.00,,-RA,0.00,VWS V14.01,2013-11-18 03:10:00,
2013-11-17 22:15:00,60.1,56.8,29.77,SW,223,3.0,23.0,89,0.00,,-RA,0.00,VWS V14.01,2013-11-18 03:15:00,
2013-11-17 22:20:00,60.2,57.0,29.78,SSW,208,5.0,23.0,89,0.00,,-RA,0.00,VWS V14.01,2013-11-18 03:20:00,
2013-11-17 22:25:00,60.2,57.0,29.76,West,260,4.0,23.0,89,0.00,,-RA,0.00,VWS V14.01,2013-11-18 03:25:00,
2013-11-17 22:30:00,60.3,57.0,29.77,WSW,246,7.0,15.0,89,0.00,,-RA,0.00,VWS V14.01,2013-11-18 03:30:00,
2013-11-17 22:35:00,60.4,57.2,29.75,South,188,3.0,15.0,89,0.00,,-RA,0.00,VWS V14.01,2013-11-18 03:35:00,
2013-11-17 22:40:00,60.4,57.2,29.76,SW,231,23.0,23.0,89,0.00,,-RA,0.00,VWS V14.01,2013-11-18 03:40:00,
2013-11-17 22:45:00,60.5,57.2,29.75,SSW,210,6.0,23.0,89,0.00,,-RA,0.00,VWS V14.01,2013-11-18 03:45:00,
2013-11-17 22:50:00,60.6,57.3,29.75,SSW,204,14.0,23.0,89,0.00,,-RA,0.00,VWS V14.01,2013-11-18 03:50:00,
2013-11-17 22:55:00,60.6,57.3,29.73,SW,220,10.0,23.0,89,0.00,,-RA,0.00,VWS V14.01,2013-11-18 03:55:00,
2013-11-17 23:00:00,60.7,57.4,29.74,SW,215,6.0,9.0,89,0.00,,-RA,0.00,VWS V14.01,2013-11-18 04:00:00,
2013-11-17 23:05:00,60.6,57.3,29.73,SSW,208,18.0,25.0,89,0.00,,-RA,0.00,VWS V14.01,2013-11-18 04:05:00,
2013-11-17 23:10:00,60.7,57.4,29.72,South,185,3.0,25.0,89,0.00,,-RA,0.00,VWS V14.01,2013-11-18 04:10:00,
2013-11-17 23:15:00,60.6,57.7,29.70,NNW,345,1.0,25.0,90,0.00,,-RA,0.00,VWS V14.01,2013-11-18 04:15:00,
2013-11-17 23:20:00,60.6,57.7,29.71,SW,228,4.0,25.0,90,0.00,,-RA,0.00,VWS V14.01,2013-11-18 04:20:00,
2013-11-17 23:25:00,60.6,57.3,29.72,SW,235,3.0,25.0,89,0.00,,-RA,0.00,VWS V14.01,2013-11-18 04:25:00,
2013-11-17 23:30:00,60.6,57.3,29.71,SSW,197,7.0,11.0,89,0.00,,-RA,0.00,VWS V14.01,2013-11-18 04:30:00,
2013-11-17 23:35:00,60.6,57.3,29.70,SW,222,11.0,22.0,89,0.00,,-RA,0.00,VWS V14.01,2013-11-18 04:35:00,
2013-11-17 23:40:00,60.8,57.2,29.70,SW,230,12.0,22.0,88,0.00,,-RA,0.00,VWS V14.01,2013-11-18 04:40:00,
2013-11-17 23:45:00,61.0,57.4,29.68,SSW,192,6.0,22.0,88,0.00,,-RA,0.00,VWS V14.01,2013-11-18 04:45:00,
2013-11-17 23:50:00,61.3,58.0,29.69,West,262,15.0,33.0,89,0.00,,-RA,0.00,VWS V14.01,2013-11-18 04:50:00,
2013-11-17 23:55:00,61.3,58.3,29.71,WNW,297,10.0,33.0,90,0.01,,-RA,0.01,VWS V14.01,2013-11-18 04:55:00,